Flag for U.S.A. Weather past 2 weeks in Baton Rouge, Louisiana, U.S.A.

Now
77 °F

Clear.


Feels Like: 79 °F
Forecast: 72 / 90 °F
Wind: 3 mph from East

Location: Baton Rouge Metropolitan - Ryan Field

Current Time: Sep 2, 2015 at 9:45:35 PM

Latest Report: Sep 2, 2015 at 8:53 PM


Visibility: 10 mi

Pressure: 29.98 "Hg

Humidity: 82%

Dew point: 71 °F

Location of Baton RougeLocation

Historic Weather in Baton Rouge — Graph

°F

Baton Rouge temperature yesterday

Maximum temperature yesterday: 92 °F (at 2:53 PM)
Minimum temperature yesterday: 73 °F (at 2:53 AM)
Average temperature yesterday: 81 °F

Past Weeks' High & Low Weather Summary

 TemperatureHumidityPressure
High94 °F (Aug 23, 3:53 PM)97% (Aug 23, 4:53 AM)30.10 "Hg (Aug 23, 4:53 AM)
Low61 °F (Aug 27, 4:53 AM)33% (Aug 26, 2:53 PM)29.87 "Hg (Aug 19, 3:53 PM)
Average79 °F73%30.00 "Hg
* Reported Aug 18 8:53 PM — Sep 2 8:53 PM, Baton Rouge, Weather by CustomWeather, © 2015

Note: Actual official high and low records may vary slightly from our data, if they occured in-between our weather recording intervals... More about our weather records

Advertising

Baton Rouge weather history for previous 24 hours

 ConditionsComfort  
Time TempWeatherWind HumidityBarometerVisibility
8:53 PM
Wed, Sep 2
77 °FClear.3 mph82%29.98 "Hg10 mi
7:53 PM78 °FSunny.5 mph82%29.98 "Hg10 mi
6:53 PM81 °FSunny.5 mph72%29.98 "Hg10 mi
5:53 PM82 °FSunny.5 mph72%30.00 "Hg10 mi
4:53 PM82 °FSunny.7 mph72%30.00 "Hg10 mi
3:53 PM81 °FScattered clouds.9 mph67%30.03 "Hg9 mi
2:53 PM85 °FPartly sunny.9 mph65%30.03 "Hg10 mi
1:53 PM87 °FSunny.9 mph63%30.05 "Hg10 mi
12:53 PM85 °FSunny.6 mph65%30.05 "Hg10 mi
11:53 AM85 °FPartly sunny.7 mph65%30.07 "Hg10 mi
10:53 AM84 °FPartly sunny.No wind67%30.07 "Hg10 mi
9:53 AM82 °FPartly sunny.No wind72%30.06 "Hg10 mi
8:53 AM80 °FOvercast.No wind76%30.06 "Hg10 mi
7:53 AM77 °FFog.No wind88%30.06 "Hg6 mi
6:53 AM77 °FOvercast.3 mph85%30.06 "Hg9 mi
5:53 AM76 °FPassing clouds.No wind88%30.04 "Hg8 mi
4:53 AM76 °FPassing clouds.3 mph88%30.02 "Hg8 mi
3:53 AM77 °FPassing clouds.5 mph82%30.02 "Hg9 mi
2:53 AM77 °FClear.No wind85%30.04 "Hg9 mi
1:53 AM77 °FClear.No wind82%30.04 "Hg10 mi
12:53 AM78 °FClear.3 mph82%30.06 "Hg10 mi
11:53 PM
Tue, Sep 1
78 °FClear.No wind84%30.06 "Hg9 mi
10:53 PM79 °FClear.3 mph82%30.05 "Hg10 mi
9:53 PM81 °FClear.7 mph74%30.04 "Hg10 mi
Weather by CustomWeather, © 2015

See weather overviewHow to use our weather pages